Find Starlink 32826

NORAD ID: 62970 Int'l Des: 2025-029 Owner: SPXS Country: US Constellation: starlink operational
LEOCIRCULAR

Current View

Loading 3D Globe...

About Starlink 32826

Description loading...

Upcoming Passes

Passes for default location (London). Set your location on the main map for personalized predictions.

Altitude History

Loading altitude history...

Two-Line Element Set

1 62970U 25029Y 26150.80608572 .00014012 00000-0 48430-3 0 9992
2 62970 53.1576 210.7702 0001159 112.2762 247.8362 15.30201887 73893
Epoch: May 30, 2026 • Age: 11 hours

Current Status

Altitude 483.6 km
Velocity 7.62 km/s
Sub-Earth Point -26.37°S, 154.36°W
Launch Date Feb 11, 2025
Age 1.2 years
Type internet

Technical Details

Classification Payload
Mass 730.00 kg
Dry Mass 700.00 kg
Total Mass 730.00 kg
Length 0.30 m
Diameter 4.10 m
Span 29.00 m
Shape Box + pan
Manufacturer SPXS
Bus Type Starlink V2M
Phase Status In Orbit
Owner/State SPXS/US

Most Searched